STARLINK-1648 (46533 NORAD) Tracking and Keplerian Element Data

This shows tracking and keplerian element data for the satellite.

Feedback or suggestion? Click here.




ElementValue
Catalog46533
NameSTARLINK-1648
Epoch Orbit182
Epoch Day304.25001157
Epoch Year2020
RAAN325.1865
Inclination53.0004
Eccentricity0.0001079
Argument of Perigee67.141
Mean Anonmoly49.5693
Mean Motion15.62788598
Decay Rate-0.00083315
L11 46533U 20070B 20304.25001157 -.00083315 00000-0 -91213-3 0 9991
L22 46533 53.0004 325.1865 0001079 67.1410 49.5693 15.62788598 1827

Live tracking and technical data element details for STARLINK-1648 (NORAD 46533). STARLINK-1648 can be tracked NOW for your location showing map with azimuth and elevation plus other details from your city location.

Track the satellite on the map from your city or location and see movement details for azimuth, elevation, latitude, longitude, range, height, and movement on the map or in text.







IsCatalogInMostPopularTable: catalog: 46533, numindb: 3
Update: records affected: 1



GetName: 46533 STARLINK-1648

Hit Count: updated at: Sat, 31 Oct 2020 07:46:58 GMT